[[{"header":{"parameterUnit":"m.s-1","parameterCategory":1,"la1":30.2991,"la2":30.254,"lo1":-89.0895,"lo2":-89.0444,"dy":0.0017,"dx":0.0017,"nx":28,"ny":28,"refTime":"2025-02-23T03:00:00:Z","depth":0,"parameterNumber":2,"parameterNumberName":"U-component_of_WINDS"},"data":[0,0,0,0,0,0,0,0,0,0,0,0,0,0,0,0,0,0,0,0,0,0,0,0,0,0,0,0,0,0,0,0,0,0,0,0,0,0,0,0,0,0,0,0,0,0,0,0,0,0,0,0,0,0,0,0,0,0,-3.8685,-3.8686,0,-3.8699,-3.8699,-3.8699,-3.859,-3.8587,-3.8584,-3.8581,-3.8596,-3.86,-3.8603,0,0,0,0,0,0,0,0,0,0,0,0,0,-3.8566,-3.8569,-3.8685,-3.8686,-3.8686,-3.8699,-3.8699,-3.8699,-3.859,-3.8587,-3.8583,-3.858,-3.8595,-3.8599,-3.8603,0,0,0,0,0,0,0,0,0,0,0,0,0,-3.8603,-3.857,-3.8685,-3.8633,-3.8629,-3.8699,-3.8699,-3.8699,-3.8591,-3.8587,-3.8582,-3.8578,-3.8594,-3.8599,-3.8604,-3.8725,0,0,-3.8619,-3.8621,0,0,0,0,0,0,0,0,-3.8601,-3.8607,-3.8641,-3.8637,-3.8632,-3.8638,-3.8662,-3.8708,-3.8592,-3.8606,-3.8581,-3.8576,-3.8614,-3.8617,-3.863,-3.8726,-3.8726,-3.8619,-3.8622,-3.8624,-3.8625,0,0,0,0,0,0,0,-3.8599,-3.8606,-3.8691,-3.8641,-3.8636,-3.8609,-3.8609,-3.8671,-3.8635,-3.8604,-3.8596,-3.8599,-3.8611,-3.8625,-3.8629,-3.8727,-3.8619,-3.8623,-3.8626,-3.8628,-3.8922,-3.8927,0,0,0,0,0,0,-3.8603,-3.8605,-3.869,-3.8691,-3.8605,-3.8615,-3.8615,-3.8641,-3.8634,-3.8629,-3.8603,-3.8594,-3.8619,-3.8624,-3.8629,-3.8771,-3.8624,-3.8629,-3.8631,-3.8917,-3.8923,-3.8928,0,0,0,0,0,0,-3.8601,-3.8612,-3.869,-3.8646,-3.8654,-3.8622,-3.8651,-3.8643,-3.8657,-3.8633,-3.8627,-3.8624,-3.8616,-3.8622,-3.8702,-3.877,-3.8631,-3.8635,-3.8911,-3.8919,-3.8926,-3.9055,0,0,0,0,0,0,-3.8598,-3.8612,-3.8658,-3.8648,-3.8656,-3.8763,-3.8656,-3.8647,-3.8666,-3.8654,-3.8652,-3.8647,-3.8613,-3.8695,-3.8707,-3.8774,-3.8639,-3.8905,-3.8915,-3.8923,-3.9045,-3.9066,-3.9084,0,0,0,0,0,-3.8594,-3.8694,-3.866,-3.8671,-3.8713,-3.8767,-3.8772,-3.873,-3.8672,-3.8718,-3.8702,-3.8647,-3.876,-3.8704,-3.8716,-3.8786,-3.8901,-3.8912,-3.8923,-3.9036,-3.9062,-3.9084,0,0,0,0,0,0,-3.8714,-3.8692,-3.8654,-3.8754,-3.8763,-3.8748,-3.8805,-3.8759,-3.8785,-3.8773,-3.872,-3.872,-3.8809,-3.8805,-3.8743,-3.8903,-3.882,-3.8834,-3.8902,-3.8927,-3.8946,-3.8946,-3.8643,0,0,0,0,0,-3.8752,-3.8797,-3.8775,-3.8865,-3.8871,-3.8838,-3.8859,-3.8826,-3.8833,-3.8837,-3.8827,-3.8836,-3.8873,-3.89,-3.8933,-3.9043,-3.9041,-3.9097,-3.9117,-3.9133,-3.9146,-3.9204,-3.9228,-3.8965,-3.8964,-3.8964,0,0,-3.8831,-3.8825,-3.8857,-3.8889,-3.8892,-3.894,-3.8842,-3.8897,-3.8932,-3.8845,-3.8919,-3.8912,-3.8919,-3.9015,-3.9056,-3.9014,-3.9218,-3.9147,-3.916,-3.9165,-3.9218,-3.9243,-3.9265,-3.8972,-3.8971,-3.8969,0,0,-3.9,-3.9,-3.9074,-3.9079,-3.9084,-3.906,-3.9078,-3.907,-3.9062,-3.9135,-3.9071,-3.9111,-3.9177,-3.9185,-3.9197,-3.9367,-3.9317,-3.9379,-3.9483,-3.954,-3.9561,-3.9579,-3.964,-3.9662,-3.9392,-3.9392,-3.9392,0,-3.9099,-3.9168,-3.9119,-3.9178,-3.9194,-3.9116,-3.9192,-3.9198,-3.9215,-3.9228,-3.918,-3.926,-3.9259,-3.9355,-3.9396,-3.9409,-3.9428,-3.938,-3.9561,-3.9579,-3.9595,-3.9653,-3.9676,-3.94,-3.9399,-3.9398,-3.9397,0,-3.9288,-3.9337,-3.9397,-3.9413,-3.9436,-3.9503,-3.9464,-3.9493,-3.9457,-3.9438,-3.9514,-3.9509,-3.954,-3.956,-3.9526,-3.9651,-3.9625,-3.957,-3.9487,-3.9629,-3.9682,-3.9704,-3.941,-3.9408,-3.9405,-3.9404,0,0,-3.9536,-3.9523,-3.9546,-3.9552,-3.955,-3.9587,-3.965,-3.9679,-3.9705,-3.9718,-3.977,-3.9826,-3.9775,-3.9789,-3.9755,-3.9805,-3.9939,-3.9743,-3.9743,-3.9781,-4.0077,-4.0119,-4.0145,-3.9905,-3.9909,-3.9912,-4.0076,0,-3.9702,-3.9808,-3.9765,-3.9875,-3.992,-3.9845,-3.99,-3.9905,-3.9889,-3.9924,-3.9906,-3.9947,-3.9876,-3.9884,-3.993,-3.9913,-3.9998,-3.9901,-3.9954,-3.9956,-3.9956,-4.0173,-4.0217,-4.0372,-4.0097,-4.01,-4.0103,0,-3.9909,-3.993,-4.0045,-4.0034,-4.0051,-4.0101,-4.0123,-4.0158,-4.0162,-4.0146,-4.0161,-4.0115,-4.0176,-4.0091,-4.0175,-4.0109,-4.0128,-4.0123,-4.0128,-4.0132,-4.0039,-4.0184,-4.0421,-4.0445,-4.0135,-4.0132,-4.013,0,-4.008,-4.0135,-4.0211,-4.0218,-4.0208,-4.0245,-4.0242,-4.0241,-4.0261,-4.028,-4.0293,-4.0319,-4.0335,-4.0356,-4.0319,-4.0261,-4.0407,-4.032,-4.0397,-4.0398,-4.0433,-4.0431,-4.0677,-4.0443,-4.0443,-4.0442,-4.0442,0,-4.027,-4.0343,-4.0287,-4.0334,-4.0413,-4.0362,-4.0443,-4.0432,-4.0431,-4.0475,-4.0411,-4.0454,-4.0401,-4.0438,-4.0409,-4.0482,-4.0489,-4.0479,-4.0471,-4.0485,-4.0487,-4.0498,-4.0487,-4.0448,-4.0447,-4.0446,-4.0445,0,-4.0474,-4.044,-4.0517,-4.05,-4.0497,-4.0557,-4.0542,-4.0584,-4.0562,-4.0618,-4.0628,-4.0595,-4.0635,-4.0599,-4.0638,-4.0618,-4.0716,-4.0691,-4.0715,-4.0708,-4.0788,-4.0781,-4.105,-4.1083,-4.0828,-4.083,-4.0832,0,-4.0599,-4.0653,-4.0641,-4.0665,-4.0666,-4.0706,-4.0725,-4.0676,-4.0699,-4.0706,-4.0748,-4.0782,-4.0807,-4.0875,-4.0854,-4.0883,-4.086,-4.0952,-4.0864,-4.0877,-4.0862,-4.086,-4.0865,-4.097,-4.0974,-4.0976,-4.0978,0,-4.0824,-4.0803,-4.0833,-4.0857,-4.0881,-4.0898,-4.0909,-4.0933,-4.0882,-4.0911,-4.095,-4.097,-4.1008,-4.1043,-4.1065,-4.1062,-4.1013,-4.1005,-4.1025,-4.1041,-4.1053,-4.1048,-4.0765,-4.1,-4.0998,-4.0996,-4.0995,-4.0994,-4.0992,-4.1037,-4.1035,-4.107,-4.1073,-4.1085,-4.1124,-4.1106,-4.1138,-4.1165,-4.1133,-4.1182,-4.1183,-4.1207,-4.121,-4.1247,-4.1209,-4.1237,-4.1245,-4.1253,-4.1265,-4.1046,-4.1251,-4.125,-4.125,-4.1249,-4.1249,0,-4.1214,-4.1209,-4.1241,-4.1259,-4.1286,-4.1234,-4.1244,-4.1271,-4.1314,-4.1318,-4.1344,-4.1389,-4.1422,-4.1403,-4.1431,-4.1465,-4.1443,-4.1474,-4.1472,-4.1472,-4.1297,-4.1278,-4.1492,-4.1492,-4.1492,-4.1491,-4.1491,-4.1491,-4.1333,-4.1406,-4.1385,-4.1458,-4.1451,-4.1497,-4.1507,-4.1518,-4.1521,-4.1574,-4.1601,-4.1587,-4.1583,-4.161,-4.1638,-4.1631,-4.1645,-4.1685,-4.1671,-4.1508,-4.1485,-4.1462,-4.1443,-4.1689,-4.1689,-4.1843,-4.1844,-4.1845]},{"header":{"parameterUnit":"m.s-1","parameterCategory":1,"la1":30.2991,"la2":30.254,"lo1":-89.0895,"lo2":-89.0444,"dy":0.0017,"dx":0.0017,"nx":28,"ny":28,"refTime":"2025-02-23T03:00:00:Z","depth":0,"parameterNumber":3,"parameterNumberName":"V-component_of_WINDS"},"data":[0,0,0,0,0,0,0,0,0,0,0,0,0,0,0,0,0,0,0,0,0,0,0,0,0,0,0,0,0,0,0,0,0,0,0,0,0,0,0,0,0,0,0,0,0,0,0,0,0,0,0,0,0,0,0,0,0,0,-5.9333,-5.9333,0,-5.9334,-5.9334,-5.9334,-5.9235,-5.9232,-5.9229,-5.9227,-5.9228,-5.923,-5.9233,0,0,0,0,0,0,0,0,0,0,0,0,0,-5.9242,-5.9244,-5.9333,-5.9333,-5.9333,-5.9334,-5.9334,-5.9334,-5.9235,-5.9232,-5.9229,-5.9226,-5.9227,-5.923,-5.9233,0,0,0,0,0,0,0,0,0,0,0,0,0,-5.9266,-5.9245,-5.9333,-5.9283,-5.9279,-5.9334,-5.9334,-5.9334,-5.9236,-5.9232,-5.9228,-5.9224,-5.9226,-5.923,-5.9234,-5.9336,0,0,-5.9245,-5.9247,0,0,0,0,0,0,0,0,-5.9265,-5.927,-5.9291,-5.9287,-5.9282,-5.928,-5.9303,-5.9335,-5.9237,-5.9252,-5.9227,-5.9222,-5.9249,-5.925,-5.9259,-5.9336,-5.9336,-5.9245,-5.9248,-5.9249,-5.925,0,0,0,0,0,0,0,-5.9264,-5.9269,-5.9333,-5.9291,-5.9286,-5.9261,-5.926,-5.9308,-5.9272,-5.925,-5.9243,-5.9245,-5.9245,-5.9256,-5.9258,-5.9336,-5.9245,-5.9249,-5.9251,-5.9252,-5.9494,-5.9498,0,0,0,0,0,0,-5.9269,-5.9268,-5.9333,-5.9333,-5.9264,-5.9265,-5.9264,-5.9285,-5.9272,-5.9266,-5.9248,-5.924,-5.9251,-5.9254,-5.9258,-5.9375,-5.9249,-5.9253,-5.9255,-5.949,-5.9495,-5.95,0,0,0,0,0,0,-5.9267,-5.9276,-5.9333,-5.9299,-5.9304,-5.9271,-5.9295,-5.9287,-5.9297,-5.927,-5.9263,-5.9265,-5.9248,-5.9253,-5.9317,-5.9374,-5.9254,-5.9258,-5.9485,-5.9492,-5.9498,-5.9612,0,0,0,0,0,0,-5.9265,-5.9276,-5.9315,-5.9301,-5.9306,-5.9393,-5.9298,-5.929,-5.9304,-5.9293,-5.9284,-5.9279,-5.9246,-5.9312,-5.9321,-5.9377,-5.9261,-5.948,-5.9488,-5.9496,-5.9603,-5.9621,-5.9637,0,0,0,0,0,-5.9262,-5.9347,-5.9317,-5.9326,-5.9355,-5.9396,-5.9399,-5.9359,-5.9309,-5.9347,-5.933,-5.9279,-5.9367,-5.9319,-5.9328,-5.9387,-5.9476,-5.9486,-5.9495,-5.9595,-5.9618,-5.9637,0,0,0,0,0,0,-5.9369,-5.9345,-5.9311,-5.9394,-5.9398,-5.9379,-5.9427,-5.9385,-5.9403,-5.9392,-5.9342,-5.9341,-5.9412,-5.9406,-5.9353,-5.9484,-5.9412,-5.9424,-5.9486,-5.9507,-5.9524,-5.9523,-5.9264,0,0,0,0,0,-5.9403,-5.9439,-5.9415,-5.949,-5.9494,-5.946,-5.9477,-5.9445,-5.9447,-5.9449,-5.9435,-5.9439,-5.9467,-5.9487,-5.9511,-5.9602,-5.9598,-5.9646,-5.9664,-5.9678,-5.9688,-5.9734,-5.9755,-5.9531,-5.9531,-5.9531,0,0,-5.9472,-5.9463,-5.9489,-5.9512,-5.9511,-5.9548,-5.9462,-5.9506,-5.9533,-5.9455,-5.9514,-5.9505,-5.9506,-5.9583,-5.9616,-5.958,-5.9749,-5.969,-5.9701,-5.9704,-5.9746,-5.9767,-5.9786,-5.9537,-5.9536,-5.9535,0,0,-5.9617,-5.9614,-5.9676,-5.9676,-5.9676,-5.9653,-5.9668,-5.9655,-5.9646,-5.9705,-5.9646,-5.9678,-5.9727,-5.973,-5.9737,-5.9882,-5.9836,-5.9891,-5.998,-6.0026,-6.0044,-6.0059,-6.0109,-6.0128,-5.9902,-5.9902,-5.9902,0,-5.9703,-5.9757,-5.9713,-5.976,-5.9771,-5.9702,-5.9763,-5.9766,-5.9774,-5.9783,-5.9742,-5.9802,-5.9798,-5.9874,-5.9909,-5.9918,-5.9933,-5.9892,-6.0045,-6.006,-6.0073,-6.0121,-6.014,-5.9909,-5.9908,-5.9907,-5.9907,0,-5.9862,-5.9901,-5.9951,-5.9959,-5.9976,-6.0031,-5.9993,-6.0016,-5.9983,-5.9964,-6.0024,-6.0016,-6.0037,-6.0052,-6.0021,-6.0124,-6.0101,-6.0054,-5.998,-6.0102,-6.0146,-6.0163,-5.9918,-5.9916,-5.9914,-5.9912,0,0,-6.0075,-6.0057,-6.0076,-6.0079,-6.0073,-6.0101,-6.0152,-6.0172,-6.0192,-6.0199,-6.024,-6.0283,-6.0238,-6.0247,-6.0215,-6.0255,-6.0368,-6.0202,-6.0201,-6.0232,-6.048,-6.0515,-6.0537,-6.0338,-6.0341,-6.0344,-6.0479,0,-6.0215,-6.03,-6.026,-6.035,-6.0384,-6.0318,-6.0362,-6.0362,-6.0346,-6.0372,-6.0353,-6.0384,-6.0324,-6.0328,-6.0365,-6.0347,-6.0417,-6.0337,-6.0374,-6.0376,-6.0375,-6.056,-6.0597,-6.0725,-6.0496,-6.0499,-6.0501,0,-6.0389,-6.0403,-6.0496,-6.0481,-6.0494,-6.0535,-6.0549,-6.0575,-6.0574,-6.0559,-6.0569,-6.0527,-6.0575,-6.0503,-6.0567,-6.0514,-6.0527,-6.052,-6.0524,-6.0525,-6.0445,-6.0565,-6.0765,-6.0784,-6.0528,-6.0525,-6.0523,0,-6.0533,-6.0575,-6.0635,-6.064,-6.0625,-6.0655,-6.065,-6.0645,-6.0659,-6.0672,-6.068,-6.0699,-6.0709,-6.0724,-6.0688,-6.0639,-6.0757,-6.0682,-6.0745,-6.0746,-6.0772,-6.0771,-6.0977,-6.0783,-6.0783,-6.0782,-6.0782,0,-6.0692,-6.0752,-6.07,-6.0737,-6.0801,-6.0754,-6.0819,-6.0807,-6.0803,-6.0836,-6.078,-6.0812,-6.0764,-6.0791,-6.0764,-6.082,-6.0826,-6.0814,-6.0806,-6.0819,-6.082,-6.0826,-6.0816,-6.0787,-6.0786,-6.0785,-6.0784,0,-6.0865,-6.0833,-6.0894,-6.0874,-6.0871,-6.0919,-6.0902,-6.0935,-6.0914,-6.0956,-6.0964,-6.0931,-6.096,-6.0926,-6.0953,-6.0934,-6.1011,-6.099,-6.1011,-6.1005,-6.1069,-6.1063,-6.1285,-6.1311,-6.1102,-6.1104,-6.1106,0,-6.0968,-6.1011,-6.0996,-6.1014,-6.1013,-6.1043,-6.1056,-6.1012,-6.1028,-6.103,-6.1063,-6.1087,-6.1104,-6.1154,-6.1132,-6.1152,-6.113,-6.1207,-6.1133,-6.1144,-6.113,-6.1127,-6.1131,-6.1222,-6.1224,-6.1226,-6.1228,0,-6.1154,-6.1136,-6.1157,-6.1173,-6.1191,-6.1201,-6.1208,-6.1226,-6.1179,-6.1201,-6.1229,-6.1242,-6.1269,-6.1293,-6.1307,-6.1302,-6.1257,-6.1251,-6.1267,-6.128,-6.1289,-6.1284,-6.1051,-6.1246,-6.1245,-6.1243,-6.1242,-6.1241,-6.1294,-6.1329,-6.1323,-6.1349,-6.1348,-6.1355,-6.1385,-6.1367,-6.139,-6.1408,-6.138,-6.1416,-6.1413,-6.1426,-6.1426,-6.1453,-6.142,-6.1443,-6.1448,-6.1454,-6.1463,-6.1286,-6.1455,-6.1455,-6.1454,-6.1454,-6.1453,0,-6.1476,-6.1469,-6.1493,-6.1503,-6.1522,-6.1478,-6.1482,-6.1502,-6.1534,-6.1534,-6.1552,-6.1584,-6.1607,-6.1587,-6.1606,-6.1632,-6.1612,-6.1638,-6.1635,-6.1635,-6.1492,-6.1476,-6.1654,-6.1654,-6.1654,-6.1654,-6.1654,-6.1654,-6.1573,-6.1629,-6.161,-6.1665,-6.1657,-6.1691,-6.1697,-6.1703,-6.1702,-6.1741,-6.1759,-6.1746,-6.1738,-6.1756,-6.1775,-6.1768,-6.1777,-6.1811,-6.1797,-6.1665,-6.1645,-6.1626,-6.1611,-6.1814,-6.1814,-6.1937,-6.1938,-6.1939]}]]